| time (UTC) | temp C | wind direction | speed KPH | gust KPH | rain 1hr cm | rain 24hr cm | rain mn cm | humidity % | barometer mb |
| 20260504090118 | 13 | 159 | 0.0 | 9.7 | 0.20 | 0.23 | 0.23 | 85 | 1006.3 |
| 20260504081551 | 15 | 239 | 0.0 | 0.0 | 0.03 | 0.03 | 0.03 | 77 | 1006.7 |
| 20260504050022 | 12 | 229 | 0.0 | 0.0 | 0.00 | 0.00 | 0.00 | 76 | 1007.8 |
| 20260504044534 | 12 | 229 | 0.0 | 0.0 | 0.00 | 0.00 | 0.00 | 76 | 1008.3 |
| 20260504043020 | 12 | 223 | 0.0 | 0.0 | 0.00 | 0.00 | 0.00 | 75 | 1008.4 |
| 20260504041517 | 13 | 162 | 0.0 | 0.0 | 0.00 | 0.00 | 0.00 | 74 | 1008.3 |
| 20260504040017 | 13 | 162 | 0.0 | 0.0 | 0.00 | 0.00 | 0.00 | 73 | 1008.4 |
| 20260504034517 | 13 | 162 | 0.0 | 0.0 | 0.00 | 0.00 | 0.00 | 72 | 1008.6 |
| 20260504033017 | 14 | 225 | 0.0 | 8.0 | 0.00 | 0.00 | 0.00 | 71 | 1009.3 |
| 20260504031514 | 15 | 227 | 0.0 | 0.0 | 0.00 | 0.00 | 0.00 | 68 | 1009.4 |
| 20260504030014 | 15 | 198 | 0.0 | 0.0 | 0.00 | 0.00 | 0.00 | 66 | 1009.6 |
| 20260504024519 | 15 | 78 | 0.0 | 0.0 | 0.00 | 0.00 | 0.00 | 63 | 1009.5 |
| 20260504023013 | 15 | 78 | 0.0 | 0.0 | 0.00 | 0.00 | 0.00 | 64 | 1009.6 |
| 20260504021512 | 15 | 78 | 0.0 | 0.0 | 0.00 | 0.00 | 0.00 | 62 | 1009.4 |
| 20260504020015 | 16 | 304 | 0.0 | 0.0 | 0.00 | 0.00 | 0.00 | 63 | 1009.5 |
| 20260504014514 | 16 | 304 | 0.0 | 0.0 | 0.00 | 0.00 | 0.00 | 61 | 1009.4 |
| 20260504013011 | 16 | 305 | 0.0 | 0.0 | 0.00 | 0.00 | 0.00 | 60 | 1009.2 |
| 20260504011512 | 15 | 306 | 0.0 | 0.0 | 0.00 | 0.00 | 0.00 | 60 | 1009.0 |
| 20260504010010 | 16 | 306 | 0.0 | 0.0 | 0.00 | 0.00 | 0.00 | 58 | 1008.7 |
| 20260504004512 | 16 | 306 | 0.0 | 0.0 | 0.00 | 0.00 | 0.00 | 57 | 1008.8 |
| 20260504003009 | 17 | 217 | 0.0 | 0.0 | 0.00 | 0.00 | 0.00 | 55 | 1008.8 |
| 20260504001508 | 18 | 122 | 0.0 | 0.0 | 0.00 | 0.00 | 0.00 | 53 | 1008.8 |
| 20260504000007 | 18 | 222 | 0.0 | 14.5 | 0.00 | 0.00 | 0.00 | 49 | 1008.8 |
| 20260503234506 | 18 | 194 | 0.0 | 4.8 | 0.00 | 0.00 | 0.00 | 49 | 1009.0 |
| 20260503233006 | 18 | 213 | 0.0 | 22.5 | 0.00 | 0.00 | 0.00 | 49 | 1009.2 |
| 20260503231503 | 18 | 226 | 0.0 | 12.9 | 0.00 | 0.00 | 0.00 | 47 | 1009.5 |
| 20260503230002 | 19 | 235 | 0.0 | 24.1 | 0.00 | 0.00 | 0.00 | 48 | 1009.8 |
| 20260503224501 | 19 | 209 | 0.0 | 14.5 | 0.00 | 0.00 | 0.00 | 47 | 1009.7 |
| 20260503223002 | 19 | 227 | 1.6 | 22.5 | 0.00 | 0.00 | 0.00 | 47 | 1009.8 |
| 20260503221600 | 19 | 210 | 8.0 | 16.1 | 0.00 | 0.00 | 0.00 | 45 | 1009.5 |
| 20260503220111 | 19 | 209 | 0.0 | 16.1 | 0.00 | 0.00 | 0.00 | 48 | 1009.3 |
| 20260503214557 | 18 | 235 | 0.0 | 24.1 | 0.00 | 0.00 | 0.00 | 47 | 1009.4 |
| 20260503213057 | 19 | 178 | 3.2 | 14.5 | 0.00 | 0.00 | 0.00 | 49 | 1009.4 |
| 20260503211607 | 18 | 175 | 0.0 | 22.5 | 0.00 | 0.00 | 0.00 | 50 | 1009.8 |
| 20260503210056 | 18 | 221 | 1.6 | 32.2 | 0.00 | 0.00 | 0.00 | 49 | 1010.0 |
| 20260503204554 | 18 | 196 | 0.0 | 16.1 | 0.00 | 0.00 | 0.00 | 50 | 1010.4 |
| 20260503203046 | 18 | 226 | 0.0 | 17.7 | 0.00 | 0.00 | 0.00 | 51 | 1010.7 |
| 20260503201542 | 18 | 182 | 1.6 | 24.1 | 0.00 | 0.00 | 0.00 | 53 | 1011.1 |
| 20260503200039 | 17 | 205 | 12.9 | 33.8 | 0.00 | 0.00 | 0.00 | 50 | 1011.5 |
| 20260503194536 | 17 | 217 | 1.6 | 35.4 | 0.00 | 0.00 | 0.00 | 52 | 1012.3 |
| 20260503193041 | 17 | 200 | 1.6 | 25.7 | 0.00 | 0.00 | 0.00 | 52 | 1012.6 |
| 20260503191536 | 17 | 184 | 0.0 | 32.2 | 0.00 | 0.00 | 0.00 | 53 | 1013.0 |
| 20260503190031 | 17 | 180 | 1.6 | 32.2 | 0.00 | 0.00 | 0.00 | 53 | 1013.4 |
| 20260503184529 | 17 | 207 | 0.0 | 20.9 | 0.00 | 0.00 | 0.00 | 53 | 1013.7 |
| 20260503183034 | 17 | 199 | 4.8 | 27.4 | 0.00 | 0.00 | 0.00 | 52 | 1013.9 |
| 20260503181540 | 17 | 211 | 6.4 | 27.4 | 0.00 | 0.00 | 0.00 | 51 | 1014.2 |
| 20260503180021 | 16 | 223 | 3.2 | 27.4 | 0.00 | 0.00 | 0.00 | 54 | 1014.6 |
| 20260503174520 | 16 | 186 | 0.0 | 22.5 | 0.00 | 0.00 | 0.00 | 54 | 1014.7 |
| 20260503173037 | 16 | 202 | 1.6 | 19.3 | 0.00 | 0.00 | 0.00 | 53 | 1015.3 |
| 20260503171514 | 16 | 193 | 1.6 | 16.1 | 0.00 | 0.00 | 0.00 | 54 | 1015.8 |
| 20260503100108 | 3 | 322 | 0.0 | 0.0 | 0.00 | 0.00 | 0.00 | 89 | 1017.5 |